Regional Weather Roundup
Issued by NWS

Home | Current Version | Previous Version | Graphics & Text | Print | Product List | Glossary On
Versions: 1 2 3 4 5 6 7 8 9 10 11 12 13 14 15 16 17 18 19 20 21 22 23 24 25 26 27 28 29 30 31 32 33 34 35 36 37 38 39 40 41 42 43 44 45 46 47 48 49 50
000
ASUS43 KDTX 021501
RWRMI
MICHIGAN HOURLY REGIONAL WEATHER ROUNDUP
NATIONAL WEATHER SERVICE DETROIT/PONTIAC MI
1100 AM EDT MON MAY 02 2016

NOTE: "FAIR" INDICATES FEW OR NO CLOUDS BELOW 12,000 FEET WITH NO
SIGNIFICANT WEATHER AND/OR OBSTRUCTION TO VISIBILITY.

MIZ047>049-052>055-059>063-066>070-074>076-081>083-021600-
SOUTHEAST LOWER MICHIGAN

CITY           SKY/WX    TMP DP  RH WIND       PRES   REMARKS
ADRIAN         CLOUDY    48  45  89 NE8       30.03R
ALMA           CLOUDY    47  40  75 N10G18    30.06F
ANN ARBOR      CLOUDY    48  45  89 NE8       30.02S
BAD AXE        MOSUNNY   48  40  73 NE10      30.06F
CARO           CLOUDY    47  42  82 NE6       30.04F
DETROIT CITY   CLOUDY    48  44  86 NE8       30.03S
DETROIT        CLOUDY    48  46  93 N9        30.03S FOG
FLINT          CLOUDY    48  42  80 NE8       30.05S
GROSSE ILE     CLOUDY    48  46  93 N6        30.01S FOG
HILLSDALE      CLOUDY    45  45 100 NE8       30.01S FOG
HOWELL         CLOUDY    45  44  99 NE7       30.03S FOG

CITY           SKY/WX    TMP DP  RH WIND       PRES   REMARKS
JACKSON        CLOUDY    47  45  93 NE7       30.02S
LAMBERTVILLE   CLOUDY    51  47  88 NE3       30.03R
LANSING        CLOUDY    45  42  89 NE9       30.05F
LAPEER         CLOUDY    45  43  90 NE6       30.04S
MASON          CLOUDY    44  43  95 NE7       30.04R
MONROE         CLOUDY    50  48  93 NE6       30.01S
MT. CLEMENS    CLOUDY    48  48 100 N7        30.02S
PONTIAC        CLOUDY    45  43  93 NE7       30.02S
PORT HOPE        N/A     42  38  85 E6        30.05S
TRI CITIES     CLOUDY    49  40  71 NE12      30.07S
MIDLAND        CLOUDY    50  39  66 NE7       30.06S
TROY           CLOUDY    47  45  91 NE9       30.05S
SAGINAW HB     CLOUDY    46  41  81 NE9       30.06S
$$
MIZ043>046-050>051-056>058-064>065-071>073-077>080-021600-
SOUTHWEST LOWER MICHIGAN

CITY           SKY/WX    TMP DP  RH WIND       PRES   REMARKS
BATTLE CREEK   CLOUDY    47  42  83 NE13      30.03S
BENTON HARBOR  PTSUNNY   53  44  71 E8        30.03S
BIG RAPIDS     SUNNY     54  31  41 E13G21    30.04F
COLDWATER      CLOUDY    47  45  92 NE9       30.02S
FREMONT        FAIR      56  26  31 NE15G25   30.03F
HOLLAND        MOSUNNY   53  40  61 NE10      30.05S
GRAND RAPIDS   PTSUNNY   51  40  65 E13       30.05S
IONIA          CLOUDY    46  39  76 NE9       30.05R
KALAMAZOO      CLOUDY    49  41  74 NE8       30.04S
LUDINGTON      SUNNY     57  36  44 NE8       30.06F
MARSHALL       CLOUDY    46  44  91 N3        30.03S
MOUNT PLEASANT CLOUDY    51  38  62 NE9       30.06R
MUSKEGON       MOSUNNY   57  32  38 NE13G21   30.05S
SOUTH HAVEN    SUNNY     53  42  66 NE10      30.03S
$$
MIZ016>042-021600-
NORTHERN LOWER MICHIGAN

CITY           SKY/WX    TMP DP  RH WIND       PRES   REMARKS
ALPENA         CLOUDY    52  38  58 NE6       30.08F
BEAVER ISLAND  SUNNY     53  37  55 NW7       30.08S
BELLAIRE       SUNNY     56  33  41 N3        30.08S
CADILLAC       SUNNY     55  32  41 N6        30.05S
CHARLEVOIX     SUNNY     49  38  65 CALM      30.11F
FRANKFORT      SUNNY     56  38  52 W6        30.08S
GAYLORD        SUNNY     55  29  36 VRB3      30.06F
HARBOR SPRINGS SUNNY     45  36  69 SW6       30.08S
HOUGHTON LAKE  CLOUDY    53  32  44 NE14      30.06F
MANISTEE       SUNNY     54  36  50 N8        30.08F
OSCODA         CLOUDY    50  38  61 NE8       30.07S
PELLSTON       SUNNY     56  32  40 VRB3      30.08F
ROGERS CITY    SUNNY     49  33  54 N7        30.09F
TRAVERSE CITY  MOSUNNY   52  34  50 NE6       30.07S
$$
MIZ007>008-015-021600-
EASTERN UPPER MICHIGAN

CITY           SKY/WX    TMP DP  RH WIND       PRES   REMARKS
KINROSS          N/A     55  34  44 CALM      30.07F
MACKINAC ISLAN CLOUDY    52  33  46 SW3       30.08S
NEWBERRY       SUNNY     57  33  39 N5        30.07F
S. S. MARIE    CLOUDY    56  33  42 VRB3      30.07F
MUNISING         N/A     44  36  73 N10       30.11F
$$
MIZ004>006-011>014-085-021600-
CENTRAL UPPER MICHIGAN

CITY           SKY/WX    TMP DP  RH WIND       PRES   REMARKS
MANISTIQUE     SUNNY     58  35  41 N6        30.08S
ESCANABA       SUNNY     57  37  47 E9        30.09F
MENOMINEE      SUNNY     57  34  41 NE9       30.09F
SAWYER-GWINN   SUNNY     52  34  50 NE10      30.12F
$$
MIZ001>003-009>011-084-021600-
WESTERN UPPER MICHIGAN

CITY           SKY/WX    TMP DP  RH WIND       PRES   REMARKS
IRON MOUNTAIN  SUNNY     56  28  34 N8        30.09F
HOUGHTON       SUNNY     54  30  40 NW6       30.11F
COPPER HARBOR    N/A    N/A N/A N/A MISG      30.13S
IRONWOOD         N/A     54  36  50 CALM      30.08F
$$

ABBREVIATIONS USED IN REMARKS
   TC - TEMPERATURE IN CELSIUS
  WCI - WIND CHILL INDEX
   HX - HEAT INDEX
  VSB - VISIBILITY





USA.gov is the U.S. government's official web portal to all federal, state and local government web resources and services.